Fort Campbell, KY

10:23 AM CST on February 09, 2016 (GMT -0600)
Campbell Army Air Field

Weather History for KHOP - November, 2013

Change the Weather History Date:

Thursday, November 7, 2013

  Actual Average Record
Temperature  
Mean Temperature 44 °F -  
Max Temperature 51 °F 59 °F 78 °F (1999)
Min Temperature 36 °F 40 °F 25 °F (2007)
Degree Days  
Heating Degree Days 22    
Moisture  
Dew Point 34 °F    
Average Humidity 74    
Maximum Humidity 100    
Minimum Humidity 37    
Precipitation  
Precipitation 0.00 in - - ()
Sea Level Pressure  
Sea Level Pressure 30.29 in    
Wind  
Wind Speed 7 mph (WNW)    
Max Wind Speed 10 mph    
Max Gust Speed 18 mph    
Visibility 9 miles    
Events      
Averages and records for this station are not official NWS values.
T = Trace of Precipitation, MM = Missing Value Source: NWS Daily Summary

Daily Weather History Graph

Daily Weather History Graph

Search for Another Location

Airport or City:

Trip Planner

Search our weather history database for the weather conditions in past years. The results will help you decide how hot, cold, wet, or windy it might be!

Date:

Astronomy

Nov. 07, 2013 Rise Set
Actual Time 6:19 AM CST 4:46 PM CST
Civil Twilight 5:52 AM CST 5:14 PM CST
Nautical Twilight 5:21 AM CST 5:44 PM CST
Astronomical Twilight 4:51 AM CST 6:15 PM CST
Moon 10:26 AM CST (11/7) 8:59 PM CST (11/7)
Length of Visible Light 11h 21m
Length of Day
10h 27m
Waxing Crescent, 23% of the Moon is Illuminated
Nov 7
Waxing Crescent
Nov 9
First Quarter
Nov 17
Full
Nov 25
Last Quarter
Dec 2
New

Hourly Weather History & Observations

Time (CST) Temp. Windchill Dew Point Humidity Pressure Visibility Wind Dir Wind Speed Gust Speed Precip Events Conditions
12:04 AM 42.8 °F 37.5 °F 42.8 °F 100% 30.19 in 10.0 mi NNW 9.2 mph 17.3 mph N/A   Overcast
12:38 AM 42.8 °F 37.5 °F 42.8 °F 100% 30.20 in 10.0 mi NNW 9.2 mph - N/A   Overcast
12:40 AM 42.8 °F 37.5 °F 42.8 °F 100% 30.20 in 10.0 mi NNW 9.2 mph - N/A   Overcast
12:42 AM 42.8 °F 38.0 °F 42.8 °F 100% 30.20 in 10.0 mi NNW 8.1 mph - N/A   Overcast
12:43 AM 42.8 °F 38.0 °F 42.8 °F 100% 30.20 in 10.0 mi NNW 8.1 mph - N/A   Overcast
12:46 AM 42.8 °F 37.0 °F 42.8 °F 100% 30.20 in 10.0 mi NNW 10.4 mph - N/A   Overcast
12:58 AM 43.2 °F 37.9 °F 43.2 °F 100% 30.21 in 10.0 mi NNW 9.2 mph - 0.00 in   Overcast
1:58 AM 42.6 °F 38.4 °F 42.4 °F 99% 30.23 in 10.0 mi Variable 6.9 mph - N/A   Overcast
2:25 AM 42.8 °F 38.0 °F 42.8 °F 100% 30.22 in 10.0 mi NW 8.1 mph - N/A   Overcast
2:58 AM 42.3 °F 37.9 °F 41.9 °F 99% 30.24 in 10.0 mi NW 6.9 mph - N/A   Overcast
3:09 AM 42.8 °F 38.0 °F 41.0 °F 93% 30.23 in 10.0 mi WNW 8.1 mph - N/A   Overcast
3:48 AM 42.8 °F 38.0 °F 41.0 °F 93% 30.24 in 10.0 mi NW 8.1 mph - N/A   Overcast
3:51 AM 41.0 °F 35.8 °F 41.0 °F 100% 30.24 in 10.0 mi NW 8.1 mph - N/A   Overcast
3:54 AM 41.0 °F 36.4 °F 41.0 °F 100% 30.24 in 10.0 mi NW 6.9 mph - N/A   Overcast
3:55 AM 41.0 °F 36.4 °F 41.0 °F 100% 30.24 in 10.0 mi NW 6.9 mph - N/A   Overcast
3:58 AM 41.7 °F 38.0 °F 41.5 °F 99% 30.25 in 10.0 mi Variable 5.8 mph - N/A   Overcast
4:20 AM 41.0 °F 36.4 °F 41.0 °F 100% 30.26 in 10.0 mi NW 6.9 mph - N/A   Mostly Cloudy
4:26 AM 41.0 °F 36.4 °F 39.2 °F 93% 30.26 in 10.0 mi NW 6.9 mph - N/A   Scattered Clouds
4:58 AM 39.0 °F 34.8 °F 39.0 °F 100% 30.27 in 10.0 mi NW 5.8 mph - N/A   Clear
5:58 AM 37.4 °F 32.8 °F 37.4 °F 100% 30.31 in 10.0 mi WNW 5.8 mph - N/A   Clear
6:58 AM 37.2 °F 31.9 °F 37.2 °F 100% 30.34 in 10.0 mi WNW 6.9 mph - N/A   Clear
7:58 AM 39.4 °F 34.5 °F 38.5 °F 97% 30.37 in 10.0 mi NW 6.9 mph - N/A   Clear
8:58 AM 42.4 °F 37.5 °F 36.5 °F 79% 30.38 in 10.0 mi North 8.1 mph - N/A   Clear
9:58 AM 45.5 °F 41.3 °F 32.5 °F 61% 30.38 in 10.0 mi North 8.1 mph - N/A   Clear
10:58 AM 47.7 °F - 29.8 °F 50% 30.38 in 10.0 mi NW 9.2 mph - N/A   Clear
11:58 AM 49.8 °F - 29.5 °F 46% 30.35 in 10.0 mi NW 8.1 mph - N/A   Clear
12:55 PM 50.9 °F - 27.7 °F 41% 30.33 in 10.0 mi North 9.2 mph - N/A   Clear
1:55 PM 51.4 °F - 25.7 °F 37% 30.32 in 10.0 mi WNW 9.2 mph 18.4 mph N/A   Clear
2:55 PM 51.4 °F - 25.5 °F 37% 30.31 in 10.0 mi NNW 9.2 mph - N/A   Clear
3:55 PM 50.4 °F - 25.9 °F 39% 30.31 in 10.0 mi NNW 6.9 mph - N/A   Clear
4:55 PM 48.2 °F - 25.7 °F 42% 30.32 in 10.0 mi Calm Calm - N/A   Clear
4:58 PM 48.2 °F - 25.7 °F 42% 30.32 in 10.0 mi NW 2.3 mph - N/A   Clear
5:10 PM 46.4 °F 45.2 °F 26.6 °F 46% 30.30 in 10.0 mi NW 3.5 mph - N/A   Clear
5:11 PM 48.2 °F - 25.7 °F 42% 30.30 in 10.0 mi NW 3.5 mph - N/A   Clear
5:36 PM 46.4 °F 45.2 °F 26.6 °F 46% 30.31 in 8.0 mi NW 3.5 mph - N/A   Clear
5:41 PM 46.4 °F 45.2 °F 26.6 °F 46% 30.31 in 4.0 mi WNW 3.5 mph - N/A   Haze
5:48 PM 46.4 °F 45.2 °F 26.6 °F 46% 30.31 in 3.0 mi WNW 3.5 mph - N/A   Haze
5:50 PM 44.6 °F - 26.6 °F 49% 30.31 in 2.5 mi West 2.3 mph - N/A   Haze
5:52 PM 46.4 °F - 26.6 °F 46% 30.31 in 3.0 mi West 2.3 mph - N/A   Haze
5:57 PM 44.6 °F - 28.4 °F 53% 30.31 in 5.0 mi WSW 2.3 mph - N/A   Haze
5:58 PM 45.3 °F - 28.4 °F 52% 30.33 in 5.0 mi West 1.2 mph - N/A   Haze
6:01 PM 44.6 °F - 28.4 °F 53% 30.31 in 9.0 mi West 1.2 mph - N/A   Clear
6:58 PM 45.0 °F 41.8 °F 27.3 °F 50% 30.34 in 10.0 mi West 5.8 mph - N/A   Clear
7:58 PM 41.4 °F 39.4 °F 30.4 °F 65% 30.35 in 10.0 mi SW 3.5 mph - N/A   Clear
8:58 PM 39.6 °F - 30.9 °F 71% 30.35 in 10.0 mi SW 2.3 mph - N/A   Clear
9:09 PM 41.0 °F - 32.0 °F 70% 30.33 in 9.0 mi WSW 2.3 mph - N/A   Clear
9:19 PM 39.2 °F - 32.0 °F 75% 30.33 in 9.0 mi SSW 1.2 mph - N/A   Clear
9:58 PM 36.7 °F - 31.3 °F 81% 30.36 in 10.0 mi SW 2.3 mph - N/A   Clear
10:58 PM 37.4 °F - 32.2 °F 81% 30.35 in 10.0 mi SW 2.3 mph - N/A   Clear
11:58 PM 36.0 °F - 31.8 °F 85% 30.35 in 10.0 mi SW 2.3 mph - N/A   Clear